Flag for Bosnia-Herzegovina Weather past 2 weeks in Sarajevo, Bosnia-Herzegovina

Now
52 °F

Partly sunny.


Feels Like: 52 °F
Forecast: 36 / 70 °F
Wind: 2 mph from North

Location: Sarajevo / Butmir

Current Time: May 28, 2015 at 9:16:13 PM

Latest Report: May 28, 2015 at 9:00 PM


Visibility: N/A

Pressure: 30.07 "Hg

Humidity: 54%

Dew point: 36 °F

Location of SarajevoLocation

Historic Weather in Sarajevo — Graph

°F

Sarajevo temperature yesterday

Maximum temperature yesterday: 55 °F (at 12:00 PM)
Minimum temperature yesterday: 50 °F (at 10:00 PM)
Average temperature yesterday: 53 °F

Past Weeks' High & Low Weather Summary

 TemperatureHumidityPressure
High84 °F (May 19, 2:00 PM)100% (May 17, 6:00 AM)30.21 "Hg (May 17, 6:00 AM)
Low43 °F (May 24, 4:00 AM)24% (May 20, 5:30 PM)29.80 "Hg (May 14, 5:30 PM)
Average60 °F73%29.96 "Hg
* Reported May 13 8:00 PM — May 28 8:00 PM, Sarajevo, Weather by CustomWeather, © 2015

Note: Actual official high and low records may vary slightly from our data, if they occured in-between our weather recording intervals... More about our weather records

Advertising

Sarajevo weather history for previous 24 hours

 ConditionsComfort  
Time TempWeatherWind HumidityBarometerVisibility
8:00 PM
Thu, May 28
54 °FPartly sunny.1 mph58%30.07 "HgN/A
7:30 PM54 °FPartly sunny.2 mph58%30.07 "HgN/A
7:00 PM54 °FPartly sunny.3 mph58%30.07 "HgN/A
6:30 PM54 °FPartly sunny.3 mph58%30.07 "HgN/A
6:00 PM54 °FPartly sunny.3 mph54%30.07 "HgN/A
5:30 PM54 °FPartly sunny.6 mph58%30.07 "HgN/A
5:00 PM54 °FPartly sunny.5 mph58%30.07 "HgN/A
4:30 PM54 °FPartly sunny.5 mph63%30.07 "HgN/A
4:00 PM54 °FPartly sunny.7 mph58%30.09 "HgN/A
3:30 PM54 °FPartly sunny.8 mph54%30.09 "HgN/A
3:00 PM54 °FPartly sunny.8 mph54%30.09 "HgN/A
2:30 PM54 °FPartly sunny.7 mph54%30.09 "HgN/A
2:00 PM52 °FPartly sunny.8 mph54%30.09 "HgN/A
1:30 PM52 °FPartly sunny.8 mph58%30.09 "HgN/A
1:00 PM52 °FPartly sunny.7 mph58%30.09 "HgN/A
12:30 PM52 °FBroken clouds.7 mph58%30.09 "HgN/A
12:00 PM50 °FBroken clouds.6 mph71%30.09 "HgN/A
11:30 AM52 °FBroken clouds.6 mph72%30.09 "HgN/A
11:00 AM50 °FPartly sunny.5 mph71%30.09 "HgN/A
10:30 AM48 °FPartly sunny.5 mph76%30.09 "HgN/A
10:00 AM48 °FPartly sunny.5 mph76%30.09 "HgN/A
9:30 AM48 °FBroken clouds.3 mph76%30.09 "HgN/A
9:00 AM48 °FBroken clouds.3 mph76%30.09 "HgN/A
8:30 AM48 °FBroken clouds.2 mph76%30.09 "HgN/A
8:00 AM48 °FBroken clouds.2 mph76%30.09 "HgN/A
7:30 AM48 °FBroken clouds.2 mph76%30.07 "HgN/A
7:00 AM48 °FBroken clouds.1 mph76%30.07 "HgN/A
6:30 AM46 °FBroken clouds.2 mph82%30.07 "HgN/A
6:00 AM46 °FPartly cloudy.2 mph82%30.07 "HgN/A
5:30 AM46 °FPartly cloudy.2 mph82%30.07 "HgN/A
5:00 AM46 °FPartly cloudy.3 mph82%30.07 "HgN/A
4:00 AM46 °FPartly cloudy.2 mph82%30.07 "HgN/A
3:00 AM48 °FPartly cloudy.3 mph76%30.07 "HgN/A
2:00 AM48 °FPartly cloudy.3 mph76%30.07 "HgN/A
1:00 AM50 °FPartly cloudy.5 mph71%30.09 "HgN/A
12:00 AM50 °FPartly cloudy.5 mph76%30.07 "HgN/A
11:00 PM
Wed, May 27
50 °FPartly cloudy.3 mph76%30.07 "HgN/A
10:30 PM50 °FPartly cloudy.1 mph82%30.07 "HgN/A
10:00 PM50 °FPartly cloudy.2 mph76%30.07 "HgN/A
9:30 PM52 °FPartly cloudy.2 mph72%30.07 "HgN/A
9:00 PM52 °FBroken clouds.3 mph72%30.07 "HgN/A
Weather by CustomWeather, © 2015

See weather overviewHow to use our weather pages